Wind_Speed
29 29 29 28 29 29 29 30 30 30 31 32 33 33 33 33 33 34 34 35 35 36 36 37 37 38 38 38 38 38 39 39 38 38 39 38 38 38 39 38 38 39 39 39
28 28 28 29 29 29 29 30 30 30 31 32 32 32 32 32 33 33 33 33 34 34 34 35 36 37 38 38 39 39 40 40 40 40 40 39 39 38 38 39 39 39 39 39
29 28 28 29 29 29 29 29 29 30 30 31 32 32 31 31 33 33 32 33 34 35 35 35 35 36 37 38 39 40 40 40 40 40 40 40 40 39 38 39 39 39 39 39
28 27 28 29 29 29 29 28 29 30 31 31 32 33 30 31 31 32 32 33 34 35 35 36 36 36 36 38 39 40 40 40 40 41 41 41 40 40 39 40 40 40 40 40
27 27 27 28 28 28 29 29 30 31 32 33 32 34 30 30 30 31 32 32 33 34 34 35 36 36 36 36 38 39 40 39 39 40 41 41 41 41 41 41 41 40 40 40
26 26 26 27 27 28 29 29 30 31 32 34 32 33 32 30 30 31 31 31 31 32 32 33 34 35 35 35 36 38 39 39 39 40 41 41 41 41 42 42 42 41 41 40
27 27 27 27 26 27 29 29 30 31 32 33 32 33 31 30 30 30 31 31 31 32 32 33 33 34 35 36 37 38 39 39 41 42 41 41 41 42 42 42 42 42 42 41
27 27 27 27 27 27 28 29 30 32 33 33 32 33 32 32 32 32 32 33 33 33 32 33 34 35 36 37 37 38 39 40 41 42 42 42 42 42 43 43 43 43 43 43
28 28 28 28 27 28 28 29 30 32 33 34 34 34 32 33 33 34 34 34 34 34 34 34 34 35 36 37 37 38 39 40 41 42 42 42 43 43 43 44 44 44 44 44
28 29 28 29 29 29 30 30 30 31 34 35 36 34 33 33 33 34 35 35 36 36 36 36 35 36 36 37 37 38 39 40 41 42 43 44 44 44 44 45 45 44 44 45
30 31 30 30 30 30 30 31 32 33 34 35 37 34 32 32 33 34 35 36 36 37 37 37 37 36 36 37 37 38 39 40 41 42 42 43 44 44 44 44 45 44 45 45
31 32 32 32 31 31 31 32 32 33 34 35 37 35 32 33 33 34 35 35 36 37 37 37 37 37 37 38 38 38 39 39 41 41 42 44 45 45 44 44 44 44 44 45
33 34 34 34 34 33 33 33 33 34 35 36 36 35 33 33 34 35 36 36 36 36 37 37 38 38 38 38 38 39 39 40 41 41 42 44 45 45 44 44 44 44 45 44
35 35 35 35 35 35 34 34 35 36 37 38 37 36 33 34 35 36 37 37 37 37 38 38 39 39 40 40 40 40 40 40 42 42 43 43 44 44 44 45 45 45 45 45
35 36 36 36 36 36 36 35 35 37 38 40 39 39 37 37 37 38 38 39 39 40 40 40 40 40 41 41 41 41 41 41 42 43 43 43 44 44 45 45 45 45 45 45
36 37 37 37 36 37 38 37 37 38 39 40 41 40 39 40 40 40 40 41 40 40 40 41 41 41 41 42 42 42 42 42 42 42 43 43 43 44 44 45 45 45 45 45
37 37 38 37 37 38 38 37 38 39 39 40 41 41 41 41 41 41 42 42 41 40 40 41 41 42 42 42 42 43 43 43 43 43 43 43 43 43 43 44 44 44 44 44
36 36 37 38 38 39 37 38 38 39 39 40 41 41 41 41 41 42 41 41 42 42 41 41 42 41 41 42 42 42 42 43 43 43 43 43 43 43 43 43 44 44 44 44
35 36 37 38 39 39 37 37 37 39 39 39 41 41 40 40 40 40 41 41 42 42 43 43 42 42 42 42 43 43 42 42 42 42 43 43 43 43 43 43 43 43 43 44
36 37 38 39 41 41 38 38 38 39 40 39 39 39 40 40 40 39 40 41 43 43 43 43 43 43 43 43 43 42 41 41 42 42 42 42 42 42 42 42 42 43 43 43
38 38 39 40 41 41 39 39 38 39 39 38 38 39 39 40 40 39 39 40 41 42 43 43 44 43 43 42 41 41 41 41 41 41 41 42 42 42 43 43 43 43 43 43
38 38 39 40 41 40 38 39 38 38 38 38 39 39 40 41 40 39 38 39 40 41 42 43 43 43 43 42 41 41 40 41 41 41 41 42 42 42 42 43 43 43 43 43
39 39 39 40 40 39 39 39 38 39 39 39 39 40 40 40 40 39 38 39 39 40 40 41 42 42 42 41 41 41 40 41 41 41 41 41 42 42 42 42 42 42 43 43
39 39 39 39 38 38 39 40 40 40 40 40 40 40 40 40 39 39 39 39 39 39 39 39 39 39 40 40 40 40 41 41 41 41 41 41 41 41 41 41 42 42 42 42
38 39 40 40 39 40 40 40 41 41 40 40 40 40 40 40 40 39 39 39 39 39 39 39 39 39 39 39 40 40 40 41 41 40 40 41 41 40 41 41 41 41 41 41
39 40 41 41 40 42 41 41 41 41 41 41 41 40 40 41 41 41 41 40 40 39 39 40 40 39 39 39 39 39 40 41 41 41 41 42 42 42 42 41 41 40 40 41
Wind_Direction
265 264 264 266 265 265 265 265 265 265 265 265 264 262 262 262 262 261 261 261 261 262 262 261 261 260 259 260 260 259 260 260 261 262 263 264 266 266 265 265 267 268 269 270
264 264 264 264 263 264 265 265 266 267 267 267 265 263 262 261 262 262 263 263 262 263 263 263 262 261 260 260 260 259 260 261 261 262 263 264 265 265 265 266 266 267 269 270
265 264 264 264 263 264 266 268 268 268 268 268 267 265 263 262 263 263 264 265 265 265 265 265 263 262 261 260 260 260 261 261 262 262 262 263 263 263 265 265 267 268 269 271
265 264 264 264 265 265 267 269 269 269 268 267 269 269 264 265 266 266 266 267 267 266 265 265 264 263 263 261 260 260 260 261 262 262 262 263 263 264 266 267 267 268 269 271
266 266 266 266 267 267 268 269 270 269 269 268 269 271 267 266 268 268 268 269 268 267 266 266 265 263 263 263 261 259 260 261 261 262 262 263 264 265 266 268 269 269 270 270
267 266 266 267 267 268 269 270 271 271 271 270 271 272 270 268 270 271 270 270 270 269 268 268 267 266 265 264 263 261 261 261 261 261 262 263 264 265 267 268 269 269 269 269
265 265 266 266 267 269 271 272 273 274 273 273 274 273 272 271 272 273 272 271 270 270 270 270 269 268 267 265 265 264 263 261 260 260 262 263 264 265 266 268 268 268 268 268
267 265 265 266 268 270 271 271 273 275 277 277 275 274 274 274 274 274 274 273 272 271 271 272 271 270 269 267 266 265 264 262 261 261 261 262 263 265 266 268 268 268 269 269
269 268 267 267 268 269 271 271 272 275 276 277 276 275 275 276 275 275 275 274 272 271 271 272 272 271 270 269 268 266 265 264 263 262 261 263 264 265 266 267 269 269 268 268
271 270 268 268 266 266 268 271 272 274 276 278 277 277 279 278 278 277 276 274 272 272 272 272 273 273 273 272 271 270 268 266 265 263 263 264 265 266 266 267 268 269 268 267
272 271 270 269 267 267 267 268 269 272 274 277 278 279 281 280 279 278 276 275 273 273 274 274 274 275 275 274 273 273 272 269 267 266 265 266 266 267 268 268 269 270 269 268
271 271 270 269 269 268 268 268 269 271 274 276 279 279 280 281 279 278 277 275 272 273 273 273 273 274 275 274 273 273 273 272 270 268 267 267 267 267 268 268 269 270 269 269
270 271 270 269 268 268 269 269 270 271 273 275 277 280 280 279 278 278 277 275 273 273 273 272 273 274 275 275 274 273 273 272 272 270 269 269 268 269 269 269 269 270 269 269
271 271 270 270 271 271 270 270 270 271 273 275 277 279 279 279 278 277 277 276 274 273 274 274 273 274 275 275 275 274 273 273 272 272 271 270 270 270 270 270 270 270 269 269
271 271 272 271 270 269 269 270 271 272 273 275 277 278 279 279 278 276 276 275 274 273 274 274 274 274 274 275 275 275 274 273 273 272 272 271 271 271 271 271 271 271 270 270
270 273 273 272 271 270 270 270 271 273 275 277 278 279 280 279 277 276 275 275 274 274 274 274 274 275 275 275 275 275 274 274 273 272 273 273 272 272 272 272 273 273 272 271
272 274 274 274 273 271 271 272 272 274 276 278 279 281 280 279 277 276 275 274 274 273 272 273 274 275 275 275 275 275 275 274 273 273 272 273 273 273 273 273 273 272 271 271
272 272 273 273 273 273 275 274 275 276 277 279 280 281 281 280 277 275 274 274 274 273 273 274 275 275 275 275 275 275 275 274 273 272 272 272 272 273 273 274 274 273 272 271
272 272 273 273 274 274 275 278 279 279 279 281 282 283 282 282 279 277 275 274 274 275 274 275 275 275 275 275 276 276 275 274 273 272 271 272 272 272 273 274 274 274 273 272
271 272 272 274 275 277 280 280 282 282 282 283 284 284 285 285 282 280 276 276 275 275 276 275 275 276 275 276 276 275 275 274 273 272 272 272 273 273 273 274 274 274 273 272
271 272 273 275 277 279 281 282 282 283 286 285 285 285 286 287 285 281 278 277 277 276 275 275 275 275 276 276 275 275 275 274 273 272 272 272 273 274 274 274 274 274 274 273
272 273 273 275 276 279 281 281 281 283 284 285 285 285 286 286 284 281 280 279 279 278 276 275 275 275 275 275 274 275 275 274 274 273 272 272 273 274 274 274 274 274 274 273
271 274 275 275 277 278 278 279 280 281 283 285 285 284 285 285 283 281 280 280 280 279 278 277 276 276 275 274 274 275 275 274 274 274 274 274 274 275 275 275 274 274 273 273
272 273 274 276 277 277 277 277 278 280 282 283 283 283 283 283 282 281 281 282 281 280 279 278 277 276 276 275 274 274 275 274 274 274 275 275 276 276 275 275 275 275 275 274
272 272 274 275 275 275 275 276 278 279 280 281 282 283 282 282 281 280 280 280 281 280 279 279 278 277 276 276 275 274 273 273 274 275 275 276 276 276 276 276 276 276 276 275
270 271 273 275 274 274 275 276 278 278 279 280 282 282 282 282 281 280 279 279 279 279 278 279 279 278 276 275 275 275 274 274 274 275 276 276 276 276 276 276 276 275 275 275
Height
5668 5669 5670 5671 5671 5671 5671 5671 5672 5673 5673 5673 5674 5675 5676 5677 5678 5679 5680 5682 5683 5684 5685 5686 5687 5689 5690 5692 5693 5695 5696 5697 5698 5699 5700 5701 5701 5701 5702 5702 5702 5702 5701 5701
5661 5662 5663 5663 5663 5663 5663 5664 5665 5666 5666 5665 5666 5667 5668 5669 5670 5671 5672 5673 5674 5675 5676 5677 5678 5679 5680 5682 5683 5684 5686 5687 5688 5689 5690 5691 5691 5692 5692 5692 5692 5692 5691 5691
5654 5656 5655 5655 5656 5656 5657 5657 5658 5658 5658 5657 5658 5659 5661 5662 5662 5663 5664 5665 5665 5666 5667 5668 5668 5669 5670 5672 5673 5674 5676 5677 5678 5679 5680 5680 5681 5681 5682 5682 5682 5681 5681 5681
5647 5648 5648 5648 5649 5649 5650 5651 5650 5650 5649 5650 5651 5650 5654 5654 5654 5655 5656 5656 5656 5657 5658 5658 5659 5660 5660 5661 5662 5664 5665 5666 5667 5668 5669 5670 5671 5671 5672 5672 5671 5671 5670 5670
5640 5641 5641 5641 5642 5642 5643 5643 5642 5642 5641 5642 5643 5642 5646 5646 5647 5647 5648 5648 5648 5648 5648 5649 5649 5650 5650 5651 5652 5653 5654 5656 5657 5658 5659 5659 5660 5661 5661 5661 5660 5660 5660 5659
5633 5633 5633 5634 5635 5635 5635 5635 5634 5633 5633 5633 5636 5634 5636 5639 5640 5639 5640 5640 5639 5639 5639 5639 5640 5640 5640 5641 5641 5642 5644 5645 5646 5647 5647 5648 5649 5650 5650 5650 5649 5649 5648 5648
5626 5626 5626 5627 5627 5628 5628 5628 5627 5625 5624 5625 5627 5625 5629 5631 5631 5631 5631 5631 5631 5631 5630 5630 5630 5630 5630 5630 5631 5632 5633 5634 5635 5635 5636 5637 5638 5638 5638 5638 5638 5637 5637 5636
5618 5619 5620 5620 5620 5620 5620 5620 5620 5618 5617 5618 5618 5618 5622 5622 5622 5622 5622 5622 5622 5622 5621 5621 5620 5620 5620 5620 5620 5621 5621 5622 5623 5624 5625 5625 5626 5626 5626 5626 5625 5625 5625 5624
5610 5612 5612 5612 5612 5613 5612 5611 5612 5610 5608 5608 5609 5610 5613 5613 5613 5612 5612 5612 5611 5612 5611 5611 5610 5610 5610 5609 5610 5610 5610 5610 5611 5612 5613 5613 5613 5614 5614 5614 5613 5613 5612 5612
5603 5604 5605 5605 5605 5604 5604 5604 5603 5601 5600 5599 5600 5602 5605 5605 5604 5603 5602 5601 5601 5601 5601 5601 5600 5600 5599 5599 5599 5598 5598 5598 5598 5599 5600 5601 5601 5601 5601 5601 5601 5600 5600 5599
5595 5595 5596 5596 5596 5597 5597 5596 5595 5593 5592 5592 5590 5596 5597 5596 5594 5593 5592 5591 5590 5591 5591 5590 5590 5590 5589 5588 5588 5587 5587 5587 5587 5587 5587 5588 5588 5589 5589 5589 5588 5588 5587 5587
5586 5586 5586 5588 5588 5587 5587 5587 5586 5586 5585 5583 5582 5588 5588 5586 5584 5582 5581 5580 5580 5580 5580 5580 5580 5579 5579 5578 5577 5576 5576 5575 5575 5575 5575 5575 5576 5576 5576 5576 5576 5575 5575 5574
5577 5577 5577 5578 5580 5579 5578 5578 5577 5576 5575 5574 5573 5578 5578 5576 5574 5572 5571 5570 5569 5569 5569 5569 5569 5568 5568 5567 5566 5565 5565 5564 5563 5563 5563 5563 5563 5563 5563 5563 5563 5562 5562 5562
5568 5567 5569 5569 5569 5568 5568 5569 5568 5567 5566 5565 5565 5567 5568 5566 5564 5562 5560 5559 5558 5558 5558 5558 5558 5557 5557 5556 5555 5554 5553 5552 5551 5551 5551 5551 5551 5551 5551 5551 5550 5550 5549 5549
5558 5558 5558 5559 5559 5558 5558 5559 5559 5557 5556 5555 5556 5556 5557 5555 5553 5551 5549 5548 5547 5547 5547 5546 5546 5545 5545 5544 5543 5542 5541 5540 5539 5539 5539 5538 5538 5538 5538 5538 5538 5537 5536 5536
5548 5548 5548 5549 5549 5547 5547 5549 5549 5548 5547 5545 5544 5545 5546 5542 5540 5539 5537 5536 5536 5535 5535 5534 5534 5533 5532 5531 5530 5529 5528 5528 5527 5526 5526 5526 5525 5525 5525 5525 5525 5524 5523 5523
5539 5539 5538 5538 5538 5536 5537 5541 5539 5538 5537 5536 5533 5534 5532 5530 5528 5527 5526 5525 5524 5523 5523 5522 5521 5521 5520 5519 5518 5516 5515 5515 5514 5514 5514 5513 5513 5513 5513 5512 5512 5511 5511 5510
5529 5529 5528 5527 5528 5526 5532 5530 5529 5527 5527 5525 5522 5521 5520 5518 5517 5515 5514 5513 5513 5512 5511 5510 5509 5508 5507 5506 5505 5504 5503 5502 5502 5501 5501 5501 5501 5501 5500 5500 5499 5499 5498 5498
5520 5520 5518 5518 5516 5516 5520 5520 5518 5516 5516 5514 5511 5509 5508 5506 5504 5504 5502 5501 5501 5500 5499 5498 5497 5496 5495 5494 5492 5491 5490 5489 5489 5489 5489 5489 5488 5488 5488 5488 5487 5486 5486 5485
5510 5510 5510 5508 5506 5506 5512 5509 5506 5505 5504 5504 5500 5498 5496 5494 5493 5494 5491 5489 5488 5487 5486 5485 5485 5484 5483 5481 5480 5478 5478 5477 5476 5476 5476 5476 5476 5476 5476 5475 5475 5474 5473 5472
5500 5499 5499 5497 5495 5497 5500 5498 5496 5495 5495 5492 5490 5487 5485 5483 5482 5481 5479 5478 5476 5475 5474 5473 5472 5471 5470 5469 5468 5466 5465 5465 5464 5464 5464 5464 5464 5464 5464 5463 5462 5462 5461 5460
5490 5489 5489 5487 5486 5490 5490 5487 5486 5484 5483 5481 5479 5476 5474 5472 5470 5468 5467 5466 5464 5463 5462 5460 5459 5459 5458 5457 5456 5455 5454 5453 5453 5452 5452 5452 5452 5452 5451 5450 5450 5449 5448 5447
5479 5480 5479 5478 5480 5479 5478 5476 5474 5473 5472 5470 5468 5466 5463 5461 5459 5457 5456 5455 5453 5451 5450 5449 5447 5446 5445 5444 5444 5443 5442 5441 5441 5441 5440 5440 5440 5439 5438 5437 5436 5435 5434 5433
5469 5468 5467 5467 5468 5468 5466 5464 5463 5462 5460 5458 5456 5455 5452 5450 5448 5447 5445 5443 5442 5440 5439 5437 5435 5434 5433 5432 5432 5431 5431 5430 5429 5429 5428 5428 5427 5426 5425 5424 5423 5422 5421 5420
5458 5456 5455 5455 5456 5455 5455 5453 5452 5450 5448 5447 5445 5443 5440 5438 5437 5435 5434 5432 5430 5429 5427 5426 5424 5423 5422 5421 5420 5419 5419 5418 5417 5417 5416 5415 5415 5413 5412 5411 5410 5409 5408 5407
5446 5445 5444 5443 5445 5442 5442 5441 5439 5438 5437 5435 5433 5431 5429 5426 5424 5423 5421 5420 5418 5417 5416 5414 5413 5412 5410 5409 5408 5407 5406 5406 5405 5405 5404 5403 5402 5401 5400 5399 5397 5396 5395 5394